Idaho Falls, ID

3:16 PM MDT on April 28, 2017 (GMT -0600)
Fanning

Weather History for KIDA - April, 2013

Change the Weather History Date:

Tuesday, April 2, 2013

  Actual Average Record
Temperature  
Mean Temperature 51 °F 42 °F  
Max Temperature 65 °F 53 °F 73 °F (1990)
Min Temperature 37 °F 30 °F 14 °F (1953)
Degree Days  
Heating Degree Days 14 24  
Month to date heating degree days 32 48  
Since 1 July heating degree days 6491 6752  
Cooling Degree Days 0 0  
Month to date cooling degree days 0 0  
Year to date cooling degree days 0 0  
Moisture  
Dew Point 35 °F    
Average Humidity 54    
Maximum Humidity 92    
Minimum Humidity 16    
Precipitation  
Precipitation 0.00 in 0.03 in 1.00 in (1970)
Month to date precipitation 0.00 0.06  
Year to date precipitation 0.84 2.27  
Sea Level Pressure  
Sea Level Pressure 30.00 in    
Wind  
Wind Speed 6 mph (SW)    
Max Wind Speed 15 mph    
Max Gust Speed 20 mph    
Visibility 10 miles    
Events      
T = Trace of Precipitation, MM = Missing Value Source: NWS Daily Summary

Daily Weather History Graph

Daily Weather History Graph

Search for Another Location

Airport or City:

Trip Planner

Search our weather history database for the weather conditions in past years. The results will help you decide how hot, cold, wet, or windy it might be!

Date:

Astronomy

Apr. 02, 2013 Rise Set
Actual Time 7:07 AM MDT 7:56 PM MDT
Civil Twilight 6:38 AM MDT 8:25 PM MDT
Nautical Twilight 6:04 AM MDT 9:00 PM MDT
Astronomical Twilight 5:28 AM MDT 9:36 PM MDT
Moon 2:11 AM MDT (4/2) 11:55 AM MDT (4/2)
Length of Visible Light 13h 46m
Length of Day
12h 48m
Waning Gibbous, 55% of the Moon is Illuminated
Apr 2
Waning Gibbous
Apr 2
Last Quarter
Apr 10
New
Apr 18
First Quarter
Apr 25
Full

Hourly Weather History & Observations

Time (MDT) Temp. Windchill Dew Point Humidity Pressure Visibility Wind Dir Wind Speed Gust Speed Precip Events Conditions
12:53 AM 46.0 °F 40.6 °F 39.0 °F 76% 29.94 in 10.0 mi SSW 11.5 mph - N/A   Clear
1:53 AM 45.0 °F 40.1 °F 37.9 °F 76% 29.95 in 10.0 mi SSW 9.2 mph - N/A   Clear
2:53 AM 42.1 °F 38.4 °F 37.0 °F 82% 29.96 in 10.0 mi SSW 5.8 mph - N/A   Clear
3:49 AM 37.4 °F - 35.6 °F 93% 30.02 in 10.0 mi Calm Calm - N/A   Mostly Cloudy
3:53 AM 37.9 °F - 35.1 °F 89% 29.99 in 9.0 mi Calm Calm - N/A   Mostly Cloudy
4:53 AM 41.0 °F - 37.9 °F 89% 29.98 in 10.0 mi Calm Calm - N/A   Overcast
5:53 AM 41.0 °F - 37.9 °F 89% 29.99 in 9.0 mi Calm Calm - N/A   Overcast
6:53 AM 41.0 °F - 37.9 °F 89% 30.00 in 10.0 mi Calm Calm - N/A   Overcast
7:53 AM 41.0 °F - 37.9 °F 89% 30.04 in 10.0 mi Calm Calm - N/A   Overcast
8:43 AM 44.6 °F - 39.2 °F 81% 30.07 in 10.0 mi Calm Calm - N/A   Clear
8:53 AM 45.0 °F - 39.9 °F 82% 30.04 in 10.0 mi Calm Calm - N/A   Scattered Clouds
9:53 AM 48.0 °F - 41.0 °F 77% 30.05 in 10.0 mi NNW 9.2 mph - N/A   Scattered Clouds
10:53 AM 51.1 °F - 39.9 °F 66% 30.06 in 10.0 mi NNW 4.6 mph - N/A   Scattered Clouds
11:53 AM 54.0 °F - 39.0 °F 57% 30.05 in 10.0 mi Variable 5.8 mph - N/A   Scattered Clouds
12:53 PM 57.0 °F - 37.0 °F 47% 30.03 in 10.0 mi North 5.8 mph - N/A   Clear
1:53 PM 57.9 °F - 36.0 °F 44% 30.01 in 10.0 mi NNW 8.1 mph - N/A   Clear
2:53 PM 60.1 °F - 33.1 °F 36% 30.00 in 10.0 mi Variable 4.6 mph - N/A   Clear
3:53 PM 62.1 °F - 30.0 °F 30% 29.99 in 10.0 mi SSW 4.6 mph - N/A   Scattered Clouds
4:53 PM 64.9 °F - 17.1 °F 16% 29.96 in 10.0 mi North 4.6 mph - N/A   Clear
5:53 PM 64.0 °F - 21.0 °F 19% 29.95 in 10.0 mi Calm Calm - N/A   Clear
6:53 PM 63.0 °F - 28.9 °F 28% 29.96 in 10.0 mi SSW 5.8 mph - N/A   Clear
7:53 PM 59.0 °F - 32.0 °F 36% 29.97 in 10.0 mi SSW 9.2 mph - N/A   Clear
8:53 PM 55.9 °F - 30.9 °F 39% 29.97 in 10.0 mi SSW 9.2 mph - N/A   Clear
9:53 PM 54.0 °F - 30.9 °F 41% 29.99 in 10.0 mi SSW 10.4 mph - N/A   Clear
10:53 PM 51.1 °F - 33.1 °F 50% 30.01 in 10.0 mi SSW 10.4 mph - N/A   Clear
11:53 PM 48.9 °F - 34.0 °F 56% 30.01 in 10.0 mi SW 9.2 mph - N/A   Scattered Clouds